• In Kazakhstan
  • List of Countries
  • For 7 days
  • Water Temperature
  • Satellite Maps
  • Weather Map
  • News
  • Weather Widgets
  • user-avatar
    Login

    Hourly Weather Prutz

    Today, 22 October, Sunday

    Time Temperature Precipitation Wind Pressure Humidity
    00:00 +6°C° 0.3 mm 1 mps 633 mmHg 85%
    01:00 +6°C° 0 mm 2 mps 634 mmHg 89%
    02:00 +5°C° 1.1 mm 2 mps 634 mmHg 91%
    03:00 +5°C° 1.1 mm 2 mps 633 mmHg 92%
    04:00 +5°C° 1.1 mm 2 mps 633 mmHg 94%
    05:00 +4°C° 1.2 mm 2 mps 633 mmHg 94%
    06:00 +4°C° 1.2 mm 2 mps 633 mmHg 95%
    07:00 +5°C° 0 mm 1 mps 632 mmHg 93%
    08:00 +4°C° 0.7 mm 2 mps 632 mmHg 92%
    09:00 +4°C° 0.7 mm 2 mps 632 mmHg 91%
    10:00 +4°C° 0.7 mm 2 mps 632 mmHg 90%
    11:00 +4°C° 1 mm 2 mps 632 mmHg 90%
    12:00 +2°C° 1 mm 3 mps 631 mmHg 89%
    13:00 +2°C° 1 mm 3 mps 631 mmHg 89%
    14:00 +2°C° 1 mm 3 mps 631 mmHg 90%
    15:00 +1°C° 1 mm 3 mps 630 mmHg 91%
    16:00 0°C° 1 mm 3 mps 630 mmHg 91%
    17:00 0°C° 0.6 mm 3 mps 630 mmHg 92%
    18:00 0°C° 0.6 mm 3 mps 631 mmHg 93%
    19:00 -1°C° 0.6 mm 3 mps 631 mmHg 94%
    20:00 -1°C° 0.5 mm 3 mps 631 mmHg 94%
    21:00 -1°C° 0.5 mm 3 mps 631 mmHg 94%
    22:00 -1°C° 0.5 mm 3 mps 631 mmHg 94%
    23:00 -1°C° 0.7 mm 3 mps 631 mmHg 94%

    Tomorrow, 23 October, Monday

    Time Temperature Precipitation Wind Pressure Humidity
    00:00 -1°C° 0.7 mm 2 mps 631 mmHg 94%
    01:00 -1°C° 0.7 mm 2 mps 631 mmHg 93%
    02:00 -2°C° 0.4 mm 2 mps 631 mmHg 94%
    03:00 -2°C° 0.4 mm 2 mps 631 mmHg 94%
    04:00 -2°C° 0.4 mm 2 mps 631 mmHg 95%
    05:00 -2°C° 0.3 mm 2 mps 631 mmHg 94%
    06:00 -2°C° 0.3 mm 2 mps 631 mmHg 94%
    07:00 -2°C° 0.3 mm 2 mps 632 mmHg 94%
    08:00 -1°C° 0.9 mm 2 mps 632 mmHg 93%
    09:00 -1°C° 0.9 mm 2 mps 632 mmHg 91%
    10:00 +1°C° 0.9 mm 2 mps 632 mmHg 90%
    11:00 +1°C° 0.8 mm 2 mps 632 mmHg 89%
    12:00 +1°C° 0.8 mm 2 mps 633 mmHg 89%
    13:00 +1°C° 0.8 mm 3 mps 633 mmHg 88%
    14:00 +2°C° 0.7 mm 2 mps 633 mmHg 89%
    15:00 +2°C° 0.7 mm 2 mps 633 mmHg 90%
    16:00 +1°C° 0.7 mm 2 mps 633 mmHg 91%
    17:00 +1°C° 0.9 mm 2 mps 633 mmHg 92%
    18:00 +1°C° 0.9 mm 2 mps 634 mmHg 93%
    19:00 +1°C° 0.9 mm 2 mps 634 mmHg 94%
    20:00 +1°C° 1.2 mm 2 mps 634 mmHg 94%
    21:00 +1°C° 1.2 mm 2 mps 635 mmHg 94%
    22:00 +1°C° 1.2 mm 2 mps 635 mmHg 94%
    23:00 +1°C° 0.8 mm 2 mps 635 mmHg 94%

    Day after tomorrow, 24 October, Tuesday

    Time Temperature Precipitation Wind Pressure Humidity
    00:00 +1°C° 0.8 mm 2 mps 635 mmHg 95%
    01:00 +1°C° 0.8 mm 2 mps 636 mmHg 95%
    02:00 -1°C° 0.2 mm 2 mps 636 mmHg 95%
    03:00 -1°C° 0.2 mm 2 mps 636 mmHg 95%
    04:00 -1°C° 0.2 mm 2 mps 635 mmHg 95%
    05:00 -1°C° 0 mm 2 mps 636 mmHg 95%
    06:00 -2°C° 0 mm 2 mps 636 mmHg 95%
    07:00 -2°C° 0 mm 2 mps 636 mmHg 94%
    08:00 +1°C° 0 mm 2 mps 636 mmHg 92%
    09:00 +2°C° 0 mm 2 mps 637 mmHg 91%
    10:00 +4°C° 0 mm 2 mps 637 mmHg 89%
    11:00 +5°C° 0 mm 2 mps 637 mmHg 89%
    12:00 +5°C° 0 mm 2 mps 637 mmHg 88%
    13:00 +6°C° 0 mm 2 mps 637 mmHg 88%
    14:00 +6°C° 0 mm 2 mps 637 mmHg 90%
    15:00 +5°C° 0 mm 2 mps 637 mmHg 91%
    16:00 +5°C° 0 mm 2 mps 637 mmHg 93%
    17:00 +4°C° 0 mm 2 mps 637 mmHg 93%
    18:00 +3°C° 0 mm 2 mps 637 mmHg 94%
    19:00 +1°C° 0 mm 2 mps 637 mmHg 95%
    20:00 +1°C° 0 mm 2 mps 638 mmHg 91%
    21:00 +1°C° 0 mm 2 mps 638 mmHg 88%
    22:00 +1°C° 0 mm 2 mps 638 mmHg 85%
    23:00 +2°C° 0 mm 2 mps 638 mmHg 83%

    25 October, Wednesday

    Time Temperature Precipitation Wind Pressure Humidity
    00:00 +2°C° 0 mm 2 mps 638 mmHg 82%
    01:00 +3°C° 0 mm 1 mps 638 mmHg 81%
    02:00 +3°C° 0 mm 1 mps 638 mmHg 81%
    03:00 +3°C° 0 mm 1 mps 637 mmHg 80%
    04:00 +4°C° 0 mm 1 mps 637 mmHg 80%
    05:00 +4°C° 0 mm 1 mps 637 mmHg 79%
    06:00 +4°C° 0 mm 1 mps 638 mmHg 78%
    07:00 +4°C° 0 mm 1 mps 638 mmHg 78%
    08:00 +6°C° 0 mm 1 mps 638 mmHg 80%
    09:00 +8°C° 0 mm 1 mps 639 mmHg 83%
    10:00 +9°C° 0 mm 1 mps 640 mmHg 86%
    11:00 +10°C° 0 mm 1 mps 640 mmHg 85%
    12:00 +11°C° 0 mm 1 mps 640 mmHg 84%
    13:00 +12°C° 0 mm 1 mps 640 mmHg 83%
    14:00 +11°C° 0 mm 1 mps 640 mmHg 85%
    15:00 +10°C° 0 mm 1 mps 639 mmHg 87%
    16:00 +10°C° 0 mm 1 mps 639 mmHg 89%
    17:00 +8°C° 0 mm 1 mps 639 mmHg 87%
    18:00 +7°C° 0 mm 1 mps 639 mmHg 85%
    19:00 +6°C° 0 mm 1 mps 639 mmHg 84%
    20:00 +6°C° 0 mm 1 mps 639 mmHg 80%
    21:00 +6°C° 0 mm 1 mps 639 mmHg 76%
    22:00 +6°C° 0 mm 1 mps 639 mmHg 72%
    23:00 +5°C° 0 mm 1 mps 639 mmHg 71%

    26 October, Thursday

    Time Temperature Precipitation Wind Pressure Humidity
    00:00 +5°C° 0 mm 1 mps 639 mmHg 69%
    01:00 +5°C° 0 mm 1 mps 639 mmHg 67%
    02:00 +5°C° 0 mm 1 mps 639 mmHg 66%
    03:00 +5°C° 0 mm 1 mps 639 mmHg 65%
    04:00 +5°C° 0 mm 1 mps 639 mmHg 64%
    05:00 +5°C° 0 mm 1 mps 639 mmHg 65%
    06:00 +5°C° 0 mm 1 mps 639 mmHg 65%
    07:00 +4°C° 0 mm 2 mps 639 mmHg 65%
    08:00 +7°C° 0 mm 1 mps 640 mmHg 69%
    09:00 +9°C° 0 mm 1 mps 640 mmHg 73%
    10:00 +11°C° 0 mm 1 mps 641 mmHg 77%
    11:00 +12°C° 0 mm 1 mps 641 mmHg 76%
    12:00 +13°C° 0 mm 1 mps 641 mmHg 74%
    13:00 +14°C° 0 mm 1 mps 641 mmHg 73%
    14:00 +13°C° 0 mm 1 mps 641 mmHg 74%
    15:00 +12°C° 0 mm 1 mps 640 mmHg 76%
    16:00 +12°C° 0 mm 1 mps 640 mmHg 77%
    17:00 +10°C° 0 mm 1 mps 640 mmHg 77%
    18:00 +8°C° 0 mm 1 mps 639 mmHg 76%
    19:00 +7°C° 0 mm 1 mps 639 mmHg 76%
    20:00 +6°C° 0 mm 2 mps 639 mmHg 74%
    21:00 +5°C° 0 mm 2 mps 639 mmHg 71%
    22:00 +5°C° 0 mm 2 mps 639 mmHg 69%
    23:00 +5°C° 0 mm 2 mps 639 mmHg 68%

    27 October, Friday

    Time Temperature Precipitation Wind Pressure Humidity
    00:00 +5°C° 0 mm 2 mps 638 mmHg 67%
    01:00 +5°C° 0 mm 2 mps 638 mmHg 65%
    02:00 +5°C° 0 mm 2 mps 638 mmHg 65%
    03:00 +5°C° 0 mm 2 mps 638 mmHg 65%
    04:00 +5°C° 0 mm 2 mps 637 mmHg 65%
    05:00 +5°C° 0 mm 2 mps 637 mmHg 67%
    06:00 +5°C° 0 mm 2 mps 637 mmHg 68%
    07:00 +5°C° 0 mm 2 mps 637 mmHg 69%
    08:00 +7°C° 0 mm 2 mps 637 mmHg 71%
    09:00 +9°C° 0 mm 2 mps 637 mmHg 72%
    10:00 +12°C° 0 mm 2 mps 638 mmHg 73%
    11:00 +12°C° 0 mm 2 mps 637 mmHg 72%
    12:00 +13°C° 0 mm 2 mps 637 mmHg 70%
    13:00 +13°C° 0 mm 2 mps 637 mmHg 69%
    14:00 +12°C° 0 mm 2 mps 636 mmHg 72%
    15:00 +10°C° 0 mm 2 mps 635 mmHg 75%
    16:00 +9°C° 0 mm 2 mps 634 mmHg 79%
    17:00 +8°C° 0.2 mm 2 mps 634 mmHg 82%
    18:00 +7°C° 0.2 mm 2 mps 633 mmHg 86%
    19:00 +6°C° 0.2 mm 2 mps 633 mmHg 90%
    20:00 +6°C° 2.3 mm 2 mps 633 mmHg 91%
    21:00 +5°C° 2.3 mm 3 mps 633 mmHg 92%
    22:00 +5°C° 2.3 mm 3 mps 634 mmHg 93%
    23:00 +4°C° 1.5 mm 3 mps 634 mmHg 94%
    Show more